RH
2 2 3 3 3 3 3 3 4 4 4 4 4 5 4 4 4 4 4 4 4 4 4 4 4 3 3 3 2 3 3 3 3 4 4 3 3 3 3 3 3 3 3 3 3 3 3 3 3 3 3 3 3 4 4 5 3 9 22 20 14 24 44 60 67 65 68 73 74 87 97 92 90 88 85 87 84 80 75 77 81 74 73 65 46 42 42 37
3 3 3 3 3 3 4 4 4 4 5 5 5 5 5 5 5 4 4 4 5 5 4 4 4 4 3 3 3 2 3 3 4 4 4 4 3 4 3 3 3 3 3 3 4 3 3 4 3 4 3 4 4 3 5 4 4 8 12 14 15 24 41 56 65 66 67 69 72 86 96 94 93 89 83 82 79 79 83 86 85 80 79 69 56 57 55 47
3 3 3 3 4 4 4 4 4 5 5 5 5 5 5 5 5 5 5 5 5 5 5 4 4 4 4 4 3 3 2 3 4 3 4 4 4 4 4 3 4 3 4 4 4 4 4 4 3 4 4 4 4 4 5 4 6 7 7 14 16 18 33 43 56 68 67 64 72 85 92 93 93 89 81 78 80 85 91 90 87 84 81 73 64 65 64 54
3 3 4 3 4 4 4 4 4 5 5 5 5 5 5 5 5 5 5 5 5 5 5 5 4 4 4 4 3 3 3 3 3 3 4 4 4 4 4 4 4 4 4 3 4 4 4 4 4 4 4 4 4 4 5 4 6 7 8 13 10 10 20 29 43 58 63 63 66 76 87 92 95 94 86 79 80 85 88 87 88 86 79 73 68 70 70 59
4 4 4 4 4 4 4 5 5 5 5 5 5 5 5 5 5 5 5 5 5 5 4 4 4 4 4 3 4 3 3 3 3 3 4 4 4 4 4 4 4 4 4 4 4 4 4 4 5 4 4 5 5 5 5 5 5 6 7 6 4 6 10 17 31 46 59 64 64 67 77 90 98 98 94 88 84 86 87 86 87 87 79 74 70 71 70 60
4 4 4 4 4 4 4 5 5 5 5 5 5 5 5 5 5 5 5 5 4 4 4 3 3 3 3 3 4 3 3 3 3 3 4 4 5 5 5 4 4 4 4 4 4 4 5 5 5 5 5 5 5 5 5 6 6 6 6 5 6 7 8 10 21 43 59 64 69 69 69 84 94 94 97 97 91 90 93 90 88 86 78 70 67 65 64 60
4 4 4 4 4 4 4 4 4 4 4 4 4 4 4 4 4 4 4 4 3 3 3 3 3 3 3 4 3 4 3 3 3 3 4 4 5 5 5 5 4 5 4 5 5 5 5 5 6 5 5 6 5 5 6 6 6 6 6 5 6 7 11 11 17 40 57 61 68 70 67 74 82 85 92 95 92 89 91 90 87 82 73 66 64 62 61 61
4 4 4 4 4 4 4 4 4 4 4 3 3 3 3 3 3 3 3 3 3 3 3 3 3 3 3 4 3 4 3 3 3 3 4 4 5 5 5 5 5 5 5 5 5 5 5 5 6 5 6 6 5 6 6 7 7 6 6 7 8 9 14 16 16 30 49 59 62 67 69 70 74 77 78 82 83 83 83 82 78 75 70 66 65 63 62 62
4 4 4 4 4 4 4 4 3 3 3 3 3 3 3 3 3 3 2 3 3 3 3 3 3 3 3 3 3 3 3 3 3 3 4 4 5 5 5 5 5 5 5 5 5 5 6 6 6 6 6 6 6 7 6 7 7 6 6 7 10 12 17 23 22 25 39 53 56 59 64 69 75 75 72 71 70 69 69 70 69 67 66 64 64 65 65 64
3 3 3 4 3 3 3 3 3 3 3 2 3 2 2 3 2 3 3 3 3 3 3 3 3 3 3 3 3 3 3 3 3 3 3 4 5 5 6 6 6 6 5 5 5 6 6 6 7 6 7 7 6 6 7 7 6 9 11 7 10 16 21 28 31 31 36 44 50 53 55 59 65 68 69 68 65 61 57 58 60 60 60 61 63 64 66 64
3 3 3 3 3 3 3 3 3 3 3 3 2 3 3 3 3 3 3 3 3 3 3 3 3 3 3 3 3 3 3 3 3 3 3 4 5 5 6 6 6 6 6 6 5 6 6 7 7 7 8 7 7 7 7 7 8 11 11 6 8 16 24 32 39 42 41 42 45 48 50 49 50 53 57 60 61 59 53 51 52 53 55 56 58 61 65 65
3 3 3 3 3 3 3 3 3 3 3 2 3 3 3 3 3 3 3 3 3 3 3 3 3 3 3 3 3 3 3 3 3 3 3 4 5 5 6 6 6 6 6 6 6 6 6 7 7 7 8 7 8 8 7 9 7 8 14 14 14 21 29 33 39 46 48 48 47 47 48 46 44 44 44 48 51 51 50 47 45 47 48 49 50 53 56 60
3 3 3 2 3 3 3 3 2 3 3 3 3 3 3 3 3 3 3 3 3 3 2 3 3 3 3 3 3 3 3 3 3 3 4 4 4 5 6 6 7 6 6 6 6 7 7 7 7 7 8 8 8 8 8 9 6 14 27 26 23 34 43 32 28 35 38 41 43 42 45 47 45 42 40 41 42 44 44 43 43 43 43 45 46 47 47 49
3 3 3 3 3 3 3 3 3 3 3 3 3 2 3 2 3 3 2 3 2 3 2 2 3 3 3 3 3 3 3 3 3 3 3 4 4 5 6 6 7 6 7 7 6 7 7 7 7 7 8 8 8 8 8 8 7 14 22 24 27 35 42 31 20 24 25 26 29 28 35 46 47 44 42 40 40 41 41 42 44 45 46 48 48 47 45 43
4 4 3 3 3 3 3 3 3 3 3 3 3 3 3 2 3 2 2 3 2 3 2 2 3 3 3 3 3 3 3 3 3 3 3 4 4 5 6 6 7 7 7 7 7 7 7 8 8 8 8 8 9 8 8 9 9 9 12 26 36 31 32 32 23 22 22 24 24 20 27 41 44 44 46 45 43 43 42 44 46 50 52 52 52 49 47 43
4 4 4 3 3 3 3 3 3 3 3 3 3 3 3 3 3 2 3 3 2 3 2 2 2 2 3 3 3 3 3 3 3 3 3 4 4 5 5 6 7 7 7 7 7 8 8 8 8 8 8 8 8 8 8 8 10 12 10 18 25 20 24 31 28 25 26 28 28 25 27 35 40 43 48 49 50 47 44 44 45 49 53 54 54 51 49 45
6 5 4 4 4 4 3 3 3 3 3 3 3 3 3 3 3 3 3 2 2 2 2 3 2 2 3 3 3 3 3 3 3 3 3 4 4 5 5 6 7 7 7 7 8 8 8 8 9 9 9 9 9 9 8 12 22 25 16 12 16 16 21 27 26 28 33 34 35 36 36 38 42 44 46 49 51 50 47 45 44 45 48 53 55 54 52 47
8 7 6 5 4 4 4 4 3 3 3 3 3 3 3 3 3 3 3 3 3 3 2 3 2 3 3 3 3 3 3 3 3 4 4 4 4 5 6 6 7 7 8 8 8 8 8 9 9 9 9 9 9 9 9 14 24 24 15 13 16 18 24 27 24 29 37 39 39 42 44 45 46 46 46 46 47 48 47 46 45 45 47 51 55 57 56 52
10 9 8 7 6 5 4 4 4 3 3 3 3 3 3 3 3 3 3 3 3 3 3 3 3 3 3 3 3 3 3 3 3 3 4 5 4 5 6 7 7 7 8 8 9 9 9 9 9 9 9 9 9 9 10 11 13 13 11 15 18 20 29 29 26 32 38 40 41 41 45 47 46 46 44 43 42 43 44 44 44 44 46 50 54 57 58 56
10 10 9 8 7 6 5 4 4 4 3 3 3 3 3 3 3 3 3 3 3 3 3 3 3 3 3 3 3 3 3 3 4 4 4 5 5 6 7 7 7 7 8 9 9 9 9 9 9 9 9 9 10 9 11 11 12 13 13 17 19 24 34 33 30 37 37 39 43 41 43 45 43 45 43 39 38 37 38 39 39 40 42 45 49 52 56 57
9 9 9 8 7 7 6 4 4 4 4 4 4 3 3 3 3 3 3 3 3 3 3 3 3 3 3 3 3 3 3 4 4 4 5 5 6 7 7 7 8 8 9 10 10 10 9 9 9 9 10 10 10 11 12 13 14 15 16 20 23 30 41 37 35 41 41 41 44 43 44 43 39 42 40 35 34 34 34 33 33 35 35 38 40 43 48 51
9 8 8 8 8 7 6 5 5 4 4 4 4 4 3 4 3 3 4 4 4 4 4 4 3 4 3 3 4 4 4 4 4 5 5 6 6 7 7 8 8 9 10 10 10 10 9 10 9 10 10 10 11 12 14 15 16 19 21 23 29 37 42 39 37 41 43 42 43 42 42 38 34 35 33 30 31 33 32 30 29 30 31 32 32 33 36 41
11 10 8 7 6 6 5 5 4 4 5 5 4 4 4 4 4 4 4 4 4 4 4 4 4 4 4 4 4 4 4 5 5 6 6 6 7 7 8 9 10 11 11 11 10 9 10 10 10 10 11 11 12 14 16 19 20 23 25 27 35 42 42 42 41 39 41 40 37 37 34 32 31 29 28 28 30 31 29 28 27 27 27 27 25 25 26 29
12 12 10 8 7 6 6 6 6 5 5 4 5 4 4 4 4 4 4 4 4 4 4 4 3 4 4 4 5 5 5 6 6 6 6 7 8 8 9 10 11 11 11 11 10 10 10 10 11 11 12 12 13 17 20 21 25 28 28 28 36 45 43 38 37 36 37 35 34 33 32 39 39 31 28 28 28 27 27 27 27 27 25 23 22 21 20 20
13 14 13 12 10 10 11 11 11 11 9 9 9 8 8 9 8 7 6 6 5 5 5 5 4 5 5 5 6 6 6 6 6 7 7 7 8 9 10 11 11 11 11 10 10 10 11 11 12 12 13 14 16 21 23 24 33 40 40 32 32 40 38 34 35 34 34 37 37 32 37 56 57 38 30 29 26 25 26 28 29 29 27 22 20 20 18 17
11 12 14 16 15 15 15 16 18 18 16 17 17 16 16 15 14 13 11 9 7 7 7 7 7 7 7 7 6 6 7 7 8 8 8 9 9 10 11 11 11 11 11 11 11 12 13 13 14 15 16 18 22 26 27 27 35 49 50 37 33 36 35 36 35 33 39 44 36 26 32 54 61 47 37 30 26 26 27 32 37 37 34 30 28 26 23 19
20 14 12 14 17 19 19 18 19 21 20 20 20 19 19 18 17 17 15 12 10 10 10 10 10 10 11 11 10 9 8 9 9 9 10 11 11 12 12 12 11 12 12 13 14 14 15 16 17 18 20 25 31 33 34 33 38 51 48 37 39 40 37 38 34 34 40 36 30 29 29 39 52 54 47 36 29 28 31 41 49 48 45 44 45 40 32 27
33 27 21 16 14 17 20 21 20 20 20 20 20 19 19 18 17 17 16 14 12 12 12 13 14 14 15 15 15 15 15 14 14 13 14 14 14 13 12 12 13 14 14 14 16 16 17 19 20 21 25 34 40 38 39 39 40 46 43 39 42 39 36 36 37 43 41 37 48 49 35 36 53 61 51 35 30 34 43 52 57 56 54 55 56 50 43 38
30 31 31 26 20 16 16 19 20 21 21 21 20 21 20 20 19 18 18 16 14 14 15 16 18 17 18 17 16 18 19 20 20 19 18 16 16 14 13 15 14 15 16 17 18 18 19 21 20 24 30 38 41 41 43 43 42 44 42 41 40 37 40 38 42 48 38 42 63 60 39 38 63 82 66 41 38 48 56 61 63 63 61 59 58 54 49 45
24 25 27 28 28 25 20 18 18 19 21 21 22 22 22 22 21 20 19 18 17 18 18 19 21 21 21 21 21 21 22 23 23 22 20 18 17 16 16 17 16 18 20 19 21 20 19 21 22 27 35 40 41 43 46 44 43 44 41 43 44 44 42 35 39 44 43 57 71 61 42 31 57 94 82 57 58 62 64 67 69 69 65 61 58 54 49 48
26 24 23 22 24 26 26 24 21 19 17 18 20 22 23 23 21 21 20 19 18 19 19 20 20 20 20 21 23 25 25 25 24 22 22 20 19 18 18 18 19 20 19 20 24 22 20 23 28 33 37 39 41 44 46 44 44 44 41 44 51 55 50 43 43 45 58 77 70 55 43 30 52 87 79 66 71 71 71 72 71 72 68 63 59 53 50 48
26 26 24 22 21 21 23 25 25 24 22 19 18 19 20 21 22 22 21 20 19 19 19 19 19 19 18 17 20 25 27 27 26 25 24 22 21 20 19 21 20 21 27 31 31 30 30 30 33 38 40 38 40 42 43 45 48 50 46 43 51 59 61 62 60 59 74 79 59 48 47 40 54 72 66 64 71 72 73 69 67 72 69 63 60 54 51 47
26 25 24 23 22 21 21 22 23 24 25 24 23 21 20 19 20 20 21 21 20 19 20 19 19 19 17 17 20 25 28 29 29 28 27 24 22 21 21 23 21 23 34 37 36 44 49 43 37 39 44 43 42 45 49 52 51 53 53 49 54 59 62 70 68 66 75 71 54 47 45 44 53 61 61 63 67 68 69 64 63 70 69 63 60 55 52 46
26 27 26 24 23 21 21 22 23 23 24 26 27 27 26 24 22 21 21 21 20 20 20 20 21 21 20 20 22 24 28 31 32 30 28 25 24 24 24 25 24 25 30 34 40 51 57 55 47 43 47 50 49 52 55 55 53 54 54 51 56 59 60 69 70 66 67 65 58 49 45 55 62 62 61 59 58 60 61 60 61 68 68 63 57 54 52 45
23 27 28 27 25 23 21 20 21 23 24 25 28 30 31 31 30 28 25 23 21 20 19 19 22 24 25 25 24 26 29 32 33 31 30 28 26 27 25 26 29 30 33 39 47 50 53 59 57 50 50 52 55 56 52 52 54 54 52 52 57 61 61 66 68 64 59 60 64 55 49 58 55 49 53 52 49 53 55 58 61 67 68 60 55 54 50 45
15 20 25 28 28 26 24 23 21 21 23 24 26 29 31 33 33 33 31 28 26 23 20 19 20 25 30 30 28 31 32 32 34 32 31 30 29 28 27 29 32 35 38 44 49 53 54 59 58 53 52 51 53 54 51 52 53 52 55 59 59 60 63 68 69 63 56 60 71 67 60 63 54 46 51 49 49 52 53 54 57 63 66 59 54 52 50 45
12 13 17 24 29 29 28 27 25 23 22 23 27 30 32 32 33 34 34 33 30 27 23 20 21 25 32 33 33 37 37 34 34 34 33 33 31 30 31 33 34 38 43 45 49 52 53 57 56 51 50 49 49 50 52 53 53 54 59 59 56 57 61 64 69 71 69 69 75 71 68 76 75 66 58 50 51 53 52 51 53 59 63 57 51 50 50 45
15 12 11 15 22 27 29 28 28 26 24 24 28 33 34 33 33 34 35 36 34 31 24 20 21 23 28 37 42 43 42 39 36 35 34 34 33 33 34 37 38 41 44 43 47 48 47 54 56 47 47 50 48 48 53 53 51 53 56 53 51 59 67 68 69 74 73 72 77 72 66 72 75 68 56 50 52 52 50 50 50 55 59 55 48 47 49 44
16 15 13 11 14 19 24 26 26 26 26 26 27 33 36 37 37 37 37 38 37 35 28 21 21 23 29 40 44 44 44 42 38 37 36 34 35 37 38 39 41 42 43 42 45 49 47 51 56 50 47 49 48 49 53 55 52 49 52 54 51 55 65 67 67 71 69 69 75 72 69 72 68 57 50 50 52 51 50 50 49 51 55 53 45 43 47 46
13 14 15 13 12 12 16 20 22 23 25 27 27 32 37 40 42 42 41 42 40 38 33 25 21 22 28 37 45 48 48 45 41 40 39 35 36 41 42 41 42 43 45 43 44 49 48 48 54 53 47 49 53 54 55 59 61 58 60 65 63 60 60 61 65 69 66 68 73 74 79 81 67 54 52 52 52 52 50 49 47 48 51 49 41 39 46 47
12 12 14 14 14 12 11 13 17 19 22 25 26 30 35 40 43 45 47 48 45 42 38 30 23 20 23 33 44 50 50 50 47 44 42 40 40 42 42 42 43 44 46 45 44 46 47 47 51 51 51 55 57 53 50 53 58 61 66 70 71 69 66 67 72 70 64 66 68 69 79 80 65 55 53 52 52 53 50 47 45 45 47 45 39 39 45 47
11 12 13 13 13 14 13 11 12 15 18 21 23 26 31 37 42 47 51 52 50 47 44 37 28 20 20 26 34 41 46 52 52 48 45 44 43 43 41 41 44 44 45 46 46 46 45 45 47 51 55 56 52 47 45 47 48 50 55 61 66 69 68 70 74 69 65 64 62 65 74 72 63 57 55 55 55 53 49 45 41 41 44 41 37 40 45 44
11 11 13 13 13 13 14 13 11 12 15 18 20 23 27 33 39 46 52 53 52 50 48 45 37 26 20 20 25 34 43 49 50 49 48 46 44 44 44 44 44 44 45 46 47 47 45 45 45 47 49 47 45 45 44 43 43 46 51 52 54 59 59 60 61 56 57 65 70 80 84 73 60 57 56 57 57 53 47 42 38 38 39 37 35 39 42 39
14 12 12 14 14 14 14 14 13 12 12 15 17 21 24 28 33 41 50 55 55 53 51 49 46 38 28 21 20 25 33 41 46 47 47 47 46 45 45 46 45 45 46 46 47 47 45 46 44 45 48 47 45 43 43 42 41 46 54 51 48 51 50 52 53 47 51 62 66 71 84 81 62 52 53 55 54 51 44 39 35 34 36 36 35 38 39 35
17 15 14 14 15 15 15 14 14 13 12 13 15 19 23 25 28 34 45 54 57 57 56 53 49 47 40 31 24 19 21 29 38 40 42 46 48 48 47 46 45 46 46 46 47 47 45 46 46 46 51 54 53 51 53 51 45 45 49 48 46 49 51 53 54 52 55 58 53 55 71 79 60 42 44 49 48 44 39 36 33 32 34 36 36 36 35 33
17 18 17 16 16 17 17 15 14 13 13 13 14 17 20 23 26 30 38 49 56 59 60 58 54 51 47 42 35 27 21 21 26 33 40 45 46 45 46 48 47 46 47 46 47 47 46 45 45 45 48 55 61 61 58 53 48 47 47 46 45 46 50 52 55 59 56 50 55 59 56 55 50 43 43 45 43 39 36 34 32 30 32 33 33 33 31 31
18 19 19 17 17 18 19 18 16 14 13 13 14 16 19 22 24 28 33 41 51 59 61 61 60 56 51 48 42 36 31 25 22 25 34 43 45 43 43 46 46 45 46 48 48 48 48 47 46 44 45 50 55 56 54 51 50 50 48 48 47 45 47 48 49 57 53 48 62 65 45 38 47 51 50 45 41 39 35 32 31 29 30 30 29 29 29 28
19 21 21 19 18 18 20 21 19 16 14 14 14 15 17 19 22 25 29 34 43 53 60 62 62 60 57 54 48 42 38 33 27 25 26 32 39 45 49 48 44 43 44 48 51 49 49 49 47 46 47 48 48 49 52 51 49 49 47 47 47 45 47 48 46 51 50 48 56 52 38 40 49 53 54 46 40 40 36 33 31 28 27 28 27 27 27 25
22 23 22 22 20 18 18 21 23 21 16 14 14 14 15 17 19 21 26 29 34 42 52 58 62 62 61 59 54 50 45 38 33 32 28 26 28 37 47 49 46 44 44 48 53 53 52 50 47 46 49 50 48 49 52 51 49 49 49 48 48 45 47 50 48 45 43 46 51 46 41 47 50 52 53 46 40 40 36 33 32 27 26 26 26 25 24 22
24 24 24 24 23 21 19 19 22 25 23 17 14 14 15 16 17 18 21 25 28 33 40 48 57 62 63 62 58 56 53 48 42 38 33 28 26 29 39 44 43 44 48 53 55 54 54 53 50 50 51 50 49 50 52 52 51 51 51 50 49 46 48 51 48 42 41 48 52 47 45 48 48 48 48 45 42 40 38 36 32 27 26 25 24 25 23 21
26 24 24 24 25 24 23 21 21 24 26 24 18 14 14 15 17 17 18 21 24 28 32 37 44 53 60 63 62 58 57 55 52 48 41 34 29 28 34 41 43 46 51 57 59 60 58 55 55 57 56 53 51 52 54 53 52 52 50 47 46 47 49 50 47 44 45 46 47 47 48 50 48 46 45 44 43 42 40 38 34 30 28 24 23 22 21 20
29 26 24 24 24 25 25 24 23 22 24 26 24 20 16 14 15 17 17 17 19 22 27 31 35 41 48 55 60 62 60 58 56 54 51 46 39 31 29 34 41 48 55 59 61 64 65 63 61 58 57 58 54 52 54 53 52 53 47 43 47 50 50 50 47 46 45 44 46 50 49 46 44 44 44 43 44 43 41 38 36 36 33 29 27 25 24 25
Wind_Speed
8 8 9 9 9 10 10 10 10 10 10 9 9 8 7 7 5 4 3 3 4 5 6 7 8 8 9 9 8 7 7 7 7 7 7 7 6 7 7 7 7 7 8 9 9 10 10 11 12 12 12 12 12 11 11 10 8 6 4 3 2 4 3 3 3 3 4 4 4 5 8 11 13 14 14 12 12 11 9 8 7 7 6 6 5 5 5 3
9 9 9 9 10 10 10 10 10 9 9 9 8 8 7 6 5 4 2 2 2 3 5 6 7 8 9 9 9 8 7 7 7 7 7 6 6 6 6 6 6 6 7 7 8 8 9 10 11 11 11 12 12 11 12 11 9 6 5 4 1 4 5 4 2 2 4 5 5 4 6 8 10 12 14 13 12 11 9 8 8 7 7 7 6 6 5 3
10 10 10 10 10 10 10 9 9 8 8 8 8 8 7 6 5 3 2 1 1 3 4 5 6 7 8 9 9 8 7 6 6 6 6 5 5 6 6 6 5 5 6 6 7 7 8 9 10 10 10 11 11 11 11 10 9 7 5 3 1 5 6 5 3 1 3 5 6 5 5 8 9 10 12 13 13 12 10 10 10 9 8 8 8 6 5 4
10 10 10 10 10 10 9 9 8 8 8 8 7 7 7 6 5 4 3 3 3 3 5 6 7 7 8 8 9 9 8 6 6 5 5 5 5 5 5 5 5 4 5 5 5 6 7 8 9 9 9 10 10 10 10 10 9 8 6 3 1 5 6 6 5 2 2 4 6 6 5 8 10 11 12 14 14 13 12 12 11 10 9 8 9 7 6 5
11 10 10 10 10 9 9 9 8 8 8 7 7 7 7 7 6 6 5 5 5 5 6 7 7 7 8 8 8 9 8 7 5 5 4 5 4 4 4 4 4 4 4 4 5 5 6 7 7 7 8 9 9 9 9 9 9 8 7 5 2 2 4 6 7 5 1 4 6 7 6 6 9 11 14 15 14 12 11 12 13 11 10 9 8 7 7 6
11 11 10 10 10 9 9 9 8 8 8 8 8 8 8 8 8 8 7 7 7 8 8 8 8 8 8 8 8 9 8 7 5 5 4 4 4 4 3 3 3 3 3 3 4 5 5 5 6 6 7 8 8 8 8 8 8 8 7 6 5 2 1 5 7 7 3 5 6 8 8 5 6 9 11 13 13 11 10 12 13 11 11 9 8 7 7 6
12 12 11 11 10 10 10 9 9 9 9 9 9 9 9 9 9 10 9 10 9 9 9 9 9 8 8 8 8 8 8 7 6 5 4 4 4 3 3 3 2 2 3 2 3 4 4 4 5 6 7 7 8 8 7 7 7 7 7 7 6 4 2 2 6 7 5 5 7 8 8 7 7 7 8 10 11 10 10 11 11 11 10 8 7 7 7 6
13 12 12 12 11 11 11 10 10 10 10 10 10 10 11 11 11 11 11 11 11 10 10 9 9 9 8 8 8 9 8 7 6 5 5 4 4 3 3 3 2 2 2 2 2 3 3 4 4 5 6 6 7 7 7 6 6 7 6 6 6 5 4 2 3 6 6 6 8 9 8 8 8 7 8 9 9 9 10 10 10 10 9 8 8 7 7 7
14 13 13 13 13 12 12 12 12 11 11 12 12 12 12 12 12 12 12 12 11 11 10 10 10 9 9 9 9 9 8 7 7 6 6 5 4 3 3 3 3 2 2 2 2 2 2 3 4 5 5 6 7 6 6 5 5 6 6 5 5 4 4 3 2 4 5 6 8 10 9 7 8 8 9 9 8 9 9 10 10 10 9 8 8 8 7 7
14 14 14 14 14 14 13 13 13 13 13 13 13 13 12 13 13 12 12 12 12 11 11 11 10 10 10 10 10 10 8 8 7 6 6 5 4 4 4 4 4 3 3 2 2 1 2 2 3 4 4 5 6 6 5 5 6 7 6 5 5 5 5 3 1 1 4 6 8 10 10 8 8 9 9 9 9 9 9 9 9 9 9 9 9 9 9 8
14 15 15 15 14 15 15 15 14 14 14 14 13 13 13 13 13 13 13 13 12 12 12 12 11 11 11 11 11 11 9 9 8 7 7 6 6 5 5 5 5 4 4 3 2 2 1 1 2 3 3 4 5 5 5 6 7 8 7 6 6 5 4 3 2 3 4 6 8 10 11 11 10 10 10 9 10 10 9 9 9 9 9 9 9 9 9 9
14 14 15 15 15 15 15 16 15 15 15 14 14 14 14 14 14 14 14 14 14 13 13 13 12 12 12 12 12 11 10 10 9 9 8 7 7 6 6 6 6 5 5 4 3 2 2 2 2 3 3 4 5 5 5 7 8 8 7 6 6 6 4 3 4 6 7 8 9 10 11 11 11 10 10 11 11 11 11 10 10 10 10 10 10 10 10 9
13 13 14 14 14 14 15 16 15 15 15 15 15 15 15 15 15 15 15 14 14 14 14 14 13 13 13 13 12 12 12 11 11 10 9 8 8 7 7 6 7 6 6 5 5 4 3 3 2 3 4 4 5 6 7 7 8 7 6 5 6 5 4 5 6 7 8 9 10 10 11 11 10 10 10 11 12 12 13 13 12 11 11 11 11 11 11 11
11 12 13 13 13 13 14 15 16 16 16 15 15 15 15 15 15 15 15 15 14 14 14 13 13 13 13 13 12 12 12 12 11 11 10 9 9 8 7 7 7 7 7 6 6 5 5 4 3 3 4 5 5 7 8 8 8 7 6 5 5 5 5 5 6 6 7 7 8 9 11 10 9 9 10 10 11 12 12 13 13 13 12 12 12 12 12 12
11 11 12 12 12 12 13 14 15 16 16 15 15 15 15 15 15 15 14 14 14 13 13 13 13 12 13 13 12 12 12 12 12 11 11 10 10 9 9 8 8 7 7 7 6 6 6 5 4 4 4 5 6 7 8 8 8 7 6 5 6 7 6 6 6 5 4 5 6 7 9 9 8 9 10 10 10 11 11 12 13 13 13 13 13 13 13 13
11 11 11 11 12 12 12 13 14 15 15 15 14 14 14 14 13 13 13 12 12 12 12 12 12 12 13 12 12 12 12 12 12 12 11 11 11 10 10 9 8 8 7 7 7 7 7 5 4 4 5 6 7 8 9 9 8 8 8 7 8 9 7 7 7 5 4 4 5 5 6 7 8 8 9 9 9 10 11 12 13 14 14 14 14 14 14 14
10 11 11 12 12 12 12 13 13 14 14 14 13 13 12 12 12 11 11 10 10 10 11 11 10 11 12 11 11 11 12 12 12 12 12 11 11 11 10 9 9 8 8 7 8 8 8 6 5 5 5 7 8 9 9 8 7 9 10 9 10 9 8 9 8 6 5 5 4 5 5 6 7 7 8 9 9 10 11 12 13 14 15 15 14 15 15 15
10 11 11 13 13 13 13 13 13 14 14 13 13 12 12 11 11 10 10 10 10 10 10 10 10 11 11 10 11 11 11 11 11 12 12 11 11 11 11 10 9 9 8 8 9 9 8 6 5 6 6 7 9 10 9 8 8 9 9 9 10 9 9 10 9 7 7 7 6 5 6 6 6 6 7 8 9 9 10 11 12 13 14 15 15 15 15 16
12 12 13 13 14 14 14 14 14 14 14 13 13 12 12 12 11 10 10 11 11 10 11 11 11 12 11 11 11 11 11 12 11 11 11 11 12 11 11 10 9 9 8 8 8 9 8 7 6 7 7 8 9 10 10 9 9 9 8 8 9 9 10 11 9 9 9 9 8 7 7 7 7 7 7 8 9 8 9 10 11 12 13 15 15 16 16 17
13 13 14 14 15 14 14 14 14 14 15 14 14 13 13 12 12 12 12 12 11 11 12 12 12 12 12 11 12 12 12 12 12 11 11 11 11 11 10 10 9 8 8 8 8 9 9 8 7 8 8 9 10 10 10 9 8 8 8 8 9 8 11 12 10 11 11 11 10 9 8 8 9 9 8 8 9 10 10 10 11 12 13 14 15 17 18 18
13 14 15 15 15 14 13 14 15 15 16 15 14 14 14 13 13 13 13 12 12 13 13 13 13 13 12 12 12 12 12 12 12 11 11 10 10 10 10 9 8 7 7 7 9 10 9 8 8 9 9 10 10 9 8 7 6 6 7 8 8 9 11 12 12 13 13 12 11 11 10 10 10 9 9 9 10 11 12 11 11 12 13 14 16 17 18 19
13 14 14 15 15 14 13 14 15 16 16 16 15 14 14 14 14 13 13 13 13 14 14 14 14 13 13 12 12 12 12 12 11 11 10 10 10 10 9 9 8 7 7 8 9 9 9 8 9 10 10 10 9 7 6 6 5 5 7 8 8 9 11 13 13 14 14 13 13 12 11 11 12 10 10 11 12 13 13 13 13 12 12 13 15 17 18 19
13 13 14 14 14 14 12 13 14 15 16 15 15 14 14 14 14 14 13 14 14 14 14 14 13 13 12 12 12 12 12 11 11 11 10 10 10 9 9 8 8 7 7 8 9 9 9 9 10 10 10 10 8 5 5 5 5 5 7 8 8 9 10 12 14 14 14 14 13 13 12 12 13 12 12 13 13 14 14 15 14 14 13 13 14 16 17 19
14 13 13 13 13 12 11 11 12 13 14 13 13 12 12 11 12 11 12 12 12 12 13 13 12 12 12 11 11 11 10 11 11 10 10 10 10 9 9 8 8 8 8 9 10 9 10 10 11 10 9 9 6 5 4 4 6 8 8 8 7 10 10 11 13 13 14 15 15 16 14 14 16 13 12 14 15 15 15 15 15 15 14 13 13 14 16 18
16 15 14 13 13 12 10 10 10 10 11 10 9 9 9 9 8 8 9 9 9 9 10 10 10 10 10 10 9 10 9 10 10 10 10 10 9 9 9 8 8 8 9 9 9 9 10 11 11 10 9 8 6 4 3 3 5 7 10 9 6 8 9 9 11 12 14 16 16 16 12 12 15 14 13 15 16 16 15 14 14 14 14 14 13 13 14 16
19 17 16 14 13 12 12 11 10 10 11 9 8 8 8 8 7 6 7 7 7 8 8 8 9 8 8 8 8 8 9 9 10 10 10 9 9 9 9 8 8 9 9 9 9 10 11 11 10 9 8 6 4 5 5 4 2 5 11 12 9 9 10 9 10 11 13 14 12 12 11 11 15 14 13 15 16 16 15 13 13 13 13 13 13 13 14 15
19 19 18 17 16 15 15 14 13 13 12 11 10 9 9 8 8 7 7 7 7 7 8 7 7 7 6 6 7 7 9 9 10 10 9 9 9 9 8 8 8 8 8 8 9 11 11 11 10 8 6 4 4 5 6 6 3 5 11 12 10 10 9 8 10 10 11 11 10 10 11 12 14 13 12 14 15 14 13 12 12 12 12 13 12 12 13 15
20 19 19 20 19 18 18 17 16 16 14 13 12 11 10 10 9 9 9 9 8 9 9 8 7 7 6 6 6 7 8 9 9 9 9 9 9 8 8 8 8 8 8 8 10 12 11 10 10 7 4 3 5 6 6 6 5 5 8 9 9 9 8 7 10 11 10 11 11 11 11 11 13 12 11 12 13 13 12 12 11 11 11 12 12 12 12 14
20 19 19 20 21 21 21 21 20 19 18 17 15 14 13 12 12 11 12 11 10 10 10 10 9 8 8 7 8 8 8 9 9 8 8 8 8 8 8 8 7 8 9 9 11 13 11 9 9 6 4 5 7 6 5 4 4 6 7 8 9 9 9 9 9 10 10 11 12 12 11 12 11 10 11 12 12 12 12 11 9 9 10 11 11 11 12 13
18 19 19 20 21 22 23 23 24 23 22 20 19 18 17 16 15 15 15 13 12 11 11 10 10 10 9 9 10 10 9 9 9 9 9 8 8 8 8 8 8 9 10 10 11 12 10 7 7 5 6 8 7 6 6 4 5 9 10 11 11 10 10 10 10 10 10 10 11 9 10 12 10 9 10 10 10 11 11 9 8 9 10 10 10 11 12 12
17 18 18 18 19 21 23 24 25 25 25 24 23 22 21 20 19 19 18 16 15 14 13 12 11 11 10 10 11 11 10 10 10 9 9 8 8 9 9 8 9 10 10 9 10 10 8 5 5 5 7 9 8 7 6 4 6 9 10 10 10 11 10 10 11 10 9 10 8 7 9 10 7 7 8 8 9 10 10 9 8 9 10 10 10 11 12 11
16 17 17 17 17 18 20 22 24 25 25 25 26 26 25 25 24 23 22 20 19 17 16 14 13 12 12 11 11 11 11 10 9 8 8 8 8 9 9 9 9 9 7 8 8 7 6 5 6 6 6 7 7 7 4 4 5 7 9 9 8 10 11 9 10 10 9 9 5 3 7 8 8 8 7 7 9 9 9 10 9 9 11 11 11 12 12 11
14 16 17 17 16 16 17 18 21 22 24 24 25 26 28 28 28 27 25 25 24 21 19 17 16 15 14 13 12 12 11 10 9 9 8 8 8 8 8 8 8 7 6 7 7 4 4 7 5 4 4 3 4 5 4 6 7 6 8 9 7 10 11 10 11 10 10 10 6 3 6 9 11 8 5 6 9 9 10 11 11 10 11 12 13 13 12 11
13 14 15 16 16 16 16 16 17 19 21 22 23 24 26 27 27 28 28 28 26 23 21 20 18 18 16 15 15 14 13 11 10 9 9 8 7 7 7 7 7 6 6 7 8 8 6 6 7 6 6 3 2 5 7 7 7 5 6 7 7 10 12 11 11 11 12 14 11 7 7 10 12 8 6 8 10 10 11 12 11 11 12 12 13 13 13 12
13 13 14 14 15 15 15 15 16 16 18 19 21 22 23 24 25 26 28 28 27 25 23 21 20 20 18 17 16 15 14 13 11 10 9 9 8 8 8 6 6 6 5 7 8 8 10 9 10 9 7 6 5 5 6 4 6 7 6 6 7 9 12 12 12 13 14 15 14 10 8 10 10 7 8 9 10 11 12 12 12 11 12 12 13 14 13 13
13 14 13 13 14 15 15 15 15 15 15 17 18 20 21 23 24 24 24 25 26 25 23 21 21 21 20 20 18 17 16 14 13 11 10 9 9 9 8 6 6 6 6 9 9 7 7 8 11 9 6 8 8 7 5 4 6 4 3 6 8 8 10 13 14 14 13 12 12 11 7 7 9 7 8 9 10 11 12 12 12 11 12 12 13 13 13 13
12 13 14 14 14 14 14 14 14 14 15 15 16 18 20 22 23 23 23 23 24 24 23 23 23 22 22 22 20 19 17 15 14 12 11 10 10 9 7 6 7 7 8 10 10 9 9 7 9 9 7 6 6 6 5 5 4 2 2 7 10 9 9 12 12 12 12 11 12 11 7 6 10 8 5 6 9 11 12 13 13 12 12 12 12 13 13 14
12 12 12 13 15 15 14 13 13 14 14 15 15 17 19 20 21 22 22 22 23 23 24 25 25 24 23 23 22 21 18 17 15 13 13 12 11 10 8 8 8 9 11 11 10 10 10 8 7 7 7 6 5 4 4 4 3 2 4 7 7 8 9 10 10 10 12 12 11 11 8 7 10 8 4 4 7 10 12 13 14 13 13 13 12 12 12 14
13 13 12 12 14 16 16 14 14 13 14 15 15 16 17 18 18 20 22 23 23 24 25 26 25 24 24 25 25 22 20 19 17 15 14 14 13 12 11 11 11 12 12 10 9 10 10 10 9 7 6 6 4 4 5 6 5 3 3 5 5 6 7 9 10 10 11 11 11 12 10 10 10 7 4 5 7 10 12 13 15 15 14 13 13 11 12 13
15 14 13 12 12 15 16 17 17 16 15 15 15 16 16 17 17 18 20 22 23 24 26 26 26 26 26 26 25 23 22 21 18 17 17 16 14 14 14 14 14 14 13 10 9 12 12 11 10 10 7 5 7 7 7 9 8 6 5 6 7 8 8 8 9 11 11 10 10 11 10 12 10 6 7 9 10 12 13 13 15 15 15 14 13 12 12 13
15 15 15 14 13 13 15 17 19 19 18 16 15 16 17 17 17 17 18 20 22 24 25 26 27 27 27 27 27 26 25 23 21 19 19 17 16 17 17 16 17 16 16 14 12 12 13 12 12 12 8 7 9 9 7 8 7 7 7 8 8 9 10 9 9 12 12 10 10 10 9 12 10 7 9 11 12 14 14 14 15 15 16 15 14 13 12 13
16 16 16 15 14 14 15 16 18 20 20 19 17 16 17 18 17 17 18 19 22 23 24 26 27 27 28 28 29 28 27 26 24 23 21 21 21 21 18 16 18 19 18 17 16 15 15 15 15 14 12 12 11 9 8 7 4 3 3 5 7 7 8 9 9 11 13 12 10 10 11 11 8 8 11 12 13 14 15 15 16 16 16 15 14 13 12 13
17 17 16 15 15 16 16 16 18 20 21 20 19 18 18 18 18 18 18 19 21 22 24 25 27 28 29 30 29 29 29 28 27 26 25 24 24 23 20 18 19 20 20 20 19 19 18 16 17 18 16 14 12 10 10 7 3 4 3 3 5 7 8 10 10 10 11 11 9 9 11 12 8 9 13 13 13 15 15 16 16 16 16 15 15 13 12 13
18 18 17 16 16 16 17 17 18 19 20 21 21 20 19 19 19 19 18 18 19 21 23 25 27 28 29 29 30 30 31 30 30 29 28 27 26 25 23 22 21 21 22 22 21 21 20 18 19 20 18 15 14 13 12 9 6 6 4 3 6 8 9 11 12 10 9 9 9 8 9 12 12 13 14 15 15 15 15 16 16 16 16 15 14 13 13 14
20 19 18 17 17 16 17 18 19 20 20 21 21 21 21 20 20 20 19 19 19 20 22 24 26 28 28 29 30 31 31 32 32 32 30 29 29 27 25 25 24 24 24 24 23 23 22 21 20 21 19 17 16 15 14 12 9 6 5 5 6 9 10 11 12 11 9 9 10 8 8 12 15 16 16 16 17 17 16 15 15 16 16 15 14 14 14 15
21 20 19 18 17 17 17 18 19 20 20 20 21 21 22 22 21 20 20 21 20 20 21 23 24 26 28 29 30 31 32 32 33 32 31 32 32 30 28 27 26 26 27 26 25 25 25 24 23 23 21 18 17 18 17 14 13 11 10 8 7 8 10 11 11 11 11 9 10 11 11 12 15 17 16 16 17 18 17 15 15 15 15 14 14 15 16 16
21 20 20 19 18 17 17 17 18 19 20 21 21 21 22 23 22 21 21 22 22 22 22 22 23 25 27 28 29 31 32 33 32 32 33 33 33 31 30 30 28 28 28 28 28 27 26 26 26 25 24 22 22 21 18 16 16 15 14 13 11 8 8 11 11 10 10 9 8 10 11 11 12 14 16 16 17 18 18 16 15 15 15 15 15 15 16 17
20 20 20 19 18 17 17 17 17 18 20 21 21 21 22 23 23 22 22 22 23 24 24 24 24 24 25 26 29 31 32 32 33 34 34 34 34 32 32 32 30 29 29 30 30 28 26 26 27 27 26 26 25 22 20 21 20 18 16 16 14 9 7 10 11 9 10 9 8 8 8 9 11 12 14 16 17 18 18 17 16 15 14 15 15 15 17 17
20 19 19 19 18 17 17 18 18 18 19 20 21 21 22 23 23 23 23 23 24 25 26 26 25 24 24 25 28 30 31 31 33 34 33 33 34 33 34 34 32 31 30 30 30 29 27 27 27 25 24 25 25 24 24 24 22 20 19 19 18 13 8 9 10 10 11 10 8 7 7 8 10 11 13 16 18 18 18 18 17 16 14 14 13 14 15 16
20 20 19 19 18 18 18 18 19 19 19 20 21 21 22 23 23 23 24 24 24 25 26 27 26 26 26 26 28 29 29 30 32 32 31 32 33 34 35 36 35 32 30 31 31 30 30 29 27 25 25 26 26 25 25 25 24 23 22 21 19 15 11 9 8 9 11 10 9 8 8 8 10 11 13 16 18 19 19 18 18 16 15 13 12 12 14 15
21 21 21 21 20 19 19 18 19 20 21 21 20 21 22 23 23 23 24 24 25 25 26 27 27 28 28 29 29 29 28 29 30 30 31 32 33 34 35 36 36 34 32 33 33 32 32 31 28 27 28 28 27 26 26 27 25 26 26 22 16 13 13 11 9 9 11 12 11 10 9 9 10 11 13 15 17 18 18 18 17 16 14 13 11 11 12 14
22 22 22 23 22 22 21 20 20 21 21 22 22 21 22 23 24 24 24 24 25 25 26 27 27 28 30 31 30 30 29 29 29 29 30 31 32 34 35 36 38 36 35 35 34 33 34 32 30 30 29 28 29 27 26 28 28 28 28 20 13 14 15 14 12 10 10 12 13 11 9 9 10 11 13 15 15 17 17 17 17 16 15 13 12 11 11 13
Wind_Direction
171 166 163 160 159 158 156 155 154 154 154 156 160 164 165 164 155 137 115 86 63 50 39 32 27 26 25 24 25 27 33 34 31 35 40 40 38 38 37 37 41 46 50 54 55 51 46 45 43 39 37 35 33 33 32 29 35 46 62 71 150 164 157 120 69 19 1 338 309 253 219 205 201 197 197 201 201 202 202 195 191 195 202 210 211 215 220 219
170 166 163 161 160 160 160 160 161 162 162 165 168 171 173 172 167 156 142 101 53 33 21 16 14 14 16 15 14 15 22 27 24 27 35 39 38 34 33 31 34 41 46 50 53 50 46 45 43 39 37 36 33 33 31 28 33 41 73 73 168 171 157 147 112 22 351 338 325 284 236 219 211 206 205 205 209 207 202 201 204 208 211 210 204 213 227 226
172 170 168 167 166 167 168 169 170 172 173 175 178 181 184 185 185 189 197 225 356 358 353 352 354 358 2 4 4 4 9 16 16 15 23 35 37 33 26 25 28 34 43 47 50 49 47 45 43 39 36 36 34 33 31 31 35 40 64 62 228 177 162 171 156 55 324 328 323 300 249 227 213 206 209 210 210 208 204 206 213 218 217 212 204 212 238 238
176 176 175 175 175 176 177 179 181 183 185 187 190 194 198 202 208 220 239 265 297 317 321 325 333 339 344 350 353 353 356 1 4 3 11 23 30 32 19 18 23 25 39 45 48 48 46 45 43 39 36 35 34 32 31 31 35 36 47 51 199 174 170 181 174 173 295 310 303 294 260 232 214 201 211 216 212 213 215 215 219 223 217 208 204 215 243 245
182 183 183 185 186 187 189 191 194 197 199 202 206 211 215 221 228 239 254 270 284 293 298 306 313 319 326 334 340 341 344 347 349 353 1 7 13 24 14 10 16 17 30 42 50 49 47 46 41 37 35 34 33 31 29 27 28 28 31 35 52 156 178 181 179 171 223 289 283 279 267 242 219 206 214 218 215 217 223 223 222 222 216 209 208 220 238 244
189 191 193 195 197 198 200 203 205 209 214 218 222 226 231 236 243 251 260 269 275 279 284 291 295 301 309 316 325 330 333 334 338 343 347 349 352 7 6 357 4 11 20 34 51 51 50 45 36 32 32 32 29 26 26 23 18 17 18 19 25 37 169 178 179 171 192 263 264 264 260 250 225 213 217 218 217 218 221 223 219 214 211 211 214 223 233 238
196 198 201 205 207 209 210 213 216 219 224 230 234 237 241 245 250 255 260 265 268 270 274 278 282 287 292 300 310 316 320 324 325 326 327 327 330 344 349 339 346 4 7 20 47 50 49 41 30 24 26 27 22 21 23 16 6 6 11 10 13 21 32 148 177 174 189 246 256 256 251 243 235 227 225 223 222 220 221 221 217 214 214 213 218 225 230 235
202 205 209 212 215 217 220 223 225 229 233 236 240 244 247 249 253 256 258 261 263 264 266 269 271 275 280 286 294 300 307 311 311 310 308 306 310 318 319 316 321 344 351 353 29 47 43 32 26 16 18 19 13 15 14 2 356 355 357 4 10 20 32 75 163 180 191 232 252 254 246 238 237 238 238 234 229 227 227 228 226 228 229 225 226 229 231 234
210 212 215 219 223 225 228 231 234 237 240 242 245 247 249 251 253 255 257 258 260 260 261 263 265 269 273 276 281 286 292 295 297 297 292 289 290 292 295 297 296 306 319 321 359 38 34 25 19 6 6 8 3 5 0 345 340 336 340 358 9 23 40 60 113 183 198 225 246 248 241 230 230 236 241 240 237 234 234 236 237 237 237 234 233 234 234 234
217 219 221 224 229 232 234 237 241 244 246 248 250 251 251 252 253 255 256 257 258 259 261 262 263 265 267 270 273 275 278 282 284 284 282 278 272 275 281 284 282 286 292 293 312 351 14 19 11 360 357 355 353 352 346 332 325 320 325 345 0 18 30 39 36 223 218 232 244 244 239 229 227 236 240 241 240 239 238 239 243 244 241 239 238 238 239 240
226 227 228 230 233 237 240 242 244 247 249 251 252 253 254 254 255 255 256 257 258 259 260 261 262 263 264 265 267 267 269 271 273 275 276 271 267 267 269 276 281 283 285 278 279 306 341 5 1 349 338 338 339 338 331 321 316 314 320 337 352 2 5 354 319 280 256 247 246 245 243 236 233 240 244 244 245 244 243 243 246 247 246 244 241 240 242 244
234 234 234 235 237 241 245 246 247 249 250 251 252 253 254 255 256 256 257 257 258 258 259 259 259 260 261 261 261 262 262 263 265 269 270 268 264 261 263 272 278 279 275 268 270 286 301 317 337 333 326 326 323 322 318 314 315 317 325 335 346 348 335 308 279 264 259 252 246 246 248 244 238 243 247 249 251 250 251 249 249 250 248 247 245 243 243 243
240 240 240 240 241 243 247 250 251 251 251 252 253 253 255 256 257 258 258 259 259 259 259 258 258 259 259 260 259 259 259 260 262 264 264 262 260 259 260 266 273 272 265 263 269 277 289 300 314 321 321 318 314 314 313 315 318 321 324 326 331 327 301 282 266 254 252 248 245 246 252 252 246 248 250 251 254 255 256 255 253 253 251 251 249 247 246 242
248 246 246 245 245 246 248 252 254 254 254 253 254 254 255 257 258 259 259 260 261 262 262 262 261 260 260 260 259 258 259 261 261 261 261 260 259 258 258 262 266 264 261 265 270 272 278 288 298 308 313 311 310 310 312 316 319 318 314 309 308 293 279 280 273 264 262 258 254 250 256 260 259 258 255 252 254 256 260 261 261 259 256 255 255 253 250 245
256 254 253 252 251 250 251 253 254 256 256 255 255 256 257 258 259 259 260 262 263 265 266 265 265 264 263 262 261 260 260 261 261 261 261 259 258 255 255 257 257 255 257 263 269 270 274 279 288 301 307 304 302 306 310 311 310 308 299 285 278 278 281 287 286 289 293 289 283 266 259 263 270 271 264 255 251 254 258 261 262 262 260 259 260 260 257 252
261 261 261 260 259 256 254 254 255 255 256 256 256 257 257 258 259 260 261 263 265 266 266 266 265 264 264 263 262 262 262 262 261 260 259 257 255 253 252 252 251 250 252 260 266 269 272 273 278 291 297 293 293 301 307 305 300 293 289 275 266 271 277 277 279 290 303 303 298 287 269 266 272 278 276 264 251 250 253 255 256 257 258 260 262 263 263 259
267 267 267 267 265 262 259 257 256 256 255 256 256 256 256 257 257 258 259 260 261 261 262 264 265 264 266 266 265 264 262 261 259 257 255 253 252 250 249 247 245 245 247 255 263 268 271 270 273 279 283 283 288 297 299 293 277 271 277 273 267 272 271 270 276 283 291 293 289 287 280 273 274 279 281 273 257 248 249 251 253 253 255 257 261 264 266 264
272 273 271 269 267 264 262 260 258 257 255 255 255 255 254 254 255 256 256 255 256 256 257 261 262 264 267 268 267 266 264 262 259 256 253 249 247 246 243 241 240 242 245 252 259 265 267 265 267 269 275 281 289 296 288 274 270 270 273 271 267 270 267 269 280 285 285 287 283 275 269 268 271 273 275 274 264 252 249 248 250 251 252 254 258 262 266 268
272 272 271 270 267 264 262 260 259 257 255 253 253 253 253 252 253 254 254 253 255 257 260 261 261 264 267 268 269 270 268 266 260 256 251 247 244 242 239 236 235 239 244 252 259 262 263 262 265 270 280 287 291 295 289 286 291 288 287 282 273 271 267 271 282 285 285 287 284 278 268 263 264 267 272 276 271 260 251 246 245 247 248 251 255 259 263 266
270 269 268 267 266 264 262 259 257 256 255 252 251 251 252 252 252 252 252 254 257 259 261 262 262 264 267 268 269 269 268 265 260 254 248 245 242 239 235 233 234 239 246 255 259 260 262 263 265 274 286 292 293 295 293 294 298 295 297 287 276 272 267 274 284 283 284 286 283 285 280 271 269 267 272 280 279 274 262 250 245 244 243 245 248 253 258 262
272 267 265 264 264 263 260 258 256 255 255 254 252 251 252 253 253 253 254 256 258 259 261 262 264 265 267 267 267 267 265 261 256 249 242 239 237 235 233 233 236 241 249 257 258 259 263 264 268 278 288 294 294 291 288 291 295 300 299 286 281 273 264 275 285 281 282 282 278 282 282 280 283 277 274 279 279 278 272 262 253 247 243 241 242 245 251 256
276 270 266 264 263 261 259 255 254 254 255 256 255 254 254 253 254 255 256 257 257 259 261 263 265 266 267 266 264 263 261 257 252 245 238 233 232 230 229 232 236 241 251 257 257 259 263 267 274 281 289 293 292 286 283 286 292 298 293 286 279 267 267 278 281 275 275 275 273 277 281 287 293 290 281 278 275 275 276 273 267 261 254 246 242 243 246 250
278 275 271 267 264 261 258 253 252 253 254 256 257 256 254 254 254 254 255 256 256 258 261 263 264 265 265 262 260 258 255 252 248 242 235 230 228 227 228 229 231 238 249 255 258 261 265 269 277 284 289 293 291 278 268 275 280 277 277 279 274 268 272 273 270 268 267 270 273 273 275 280 285 287 281 273 272 274 276 278 280 278 272 260 252 247 245 246
276 276 273 269 266 262 256 250 249 250 252 253 253 252 251 249 249 249 250 251 254 256 259 262 263 262 260 257 254 251 248 246 244 239 234 230 227 226 227 227 229 237 246 254 259 264 269 274 279 284 289 292 289 270 261 268 270 270 271 267 258 263 267 265 269 270 265 267 269 271 279 284 279 276 271 268 270 273 277 281 285 286 283 275 264 257 252 249
273 273 272 268 262 256 250 242 240 243 245 244 244 243 239 236 235 238 243 248 251 254 257 260 261 259 257 253 248 244 240 239 238 234 233 232 229 228 227 227 232 239 246 255 265 271 276 280 284 289 294 293 288 276 272 266 265 274 280 276 261 264 273 279 282 278 273 271 269 275 288 286 275 265 256 264 271 275 281 286 287 287 285 280 273 266 262 259
269 267 267 264 257 250 244 238 234 236 238 234 234 237 238 237 233 235 244 252 254 255 255 256 256 256 253 249 245 240 234 232 231 230 230 231 230 230 229 229 235 242 252 265 275 279 281 284 289 293 295 297 303 305 299 298 294 257 268 282 288 280 284 290 285 278 279 284 286 291 289 273 271 264 253 262 274 280 288 292 290 287 285 282 277 273 269 267
269 264 261 260 255 248 242 238 233 234 236 232 233 240 246 248 247 249 255 260 258 254 256 256 253 250 248 247 245 240 233 228 229 228 228 230 229 229 230 233 241 251 265 276 279 283 285 286 288 289 297 315 310 304 304 310 314 244 263 289 296 286 291 292 285 280 280 291 300 293 281 273 272 269 260 267 277 286 291 290 288 287 286 283 280 277 272 270
270 265 261 257 254 250 245 241 237 236 236 234 234 240 247 253 255 257 261 263 257 251 253 254 248 247 248 250 252 247 239 234 232 228 227 229 230 232 235 241 251 261 270 273 273 281 284 280 281 281 292 296 277 288 304 307 301 266 279 298 293 286 291 285 285 290 291 293 286 275 272 273 275 275 272 276 283 288 286 281 282 286 288 287 283 280 275 271
271 268 263 258 255 252 248 245 242 240 239 237 236 239 246 252 255 258 263 263 256 249 249 247 246 251 254 255 257 255 250 244 239 233 231 232 234 242 248 253 262 265 270 271 271 277 279 274 275 273 260 256 267 287 304 308 309 302 298 293 282 278 279 282 288 290 292 287 275 275 277 274 280 287 282 282 285 285 282 279 282 291 295 292 288 283 276 272
275 273 268 261 257 254 251 248 246 245 244 242 240 242 246 250 253 258 261 260 255 251 250 247 248 253 256 259 259 258 257 252 248 245 243 244 247 255 260 263 268 267 265 265 265 273 278 271 268 260 247 256 267 279 292 313 316 300 290 281 276 275 279 287 284 280 286 285 272 271 280 277 280 286 282 286 288 285 287 287 290 300 300 294 292 288 282 277
277 277 274 269 262 257 253 250 248 247 247 245 244 244 247 249 252 254 256 256 253 252 251 249 250 253 256 261 261 260 259 256 257 256 254 257 260 264 264 263 265 263 262 261 257 267 278 264 250 245 242 253 265 263 268 297 303 296 293 288 283 284 288 288 286 293 299 289 270 254 276 286 276 266 272 283 289 292 298 299 299 304 301 299 299 294 289 284
276 276 277 275 271 264 257 253 250 249 248 247 247 246 247 249 251 252 253 253 251 250 251 251 251 253 256 261 263 262 261 259 261 260 260 261 261 265 267 265 263 259 258 255 247 259 276 251 229 236 247 256 257 248 252 282 290 303 307 304 293 283 286 286 289 305 306 287 276 258 282 284 256 249 262 280 289 292 300 305 305 302 301 304 305 298 292 290
278 277 277 277 275 270 265 259 254 250 248 247 247 246 246 247 249 251 252 252 251 250 251 251 253 254 256 259 259 259 258 257 256 254 257 259 261 268 269 267 266 252 234 228 213 205 268 276 251 215 229 250 226 218 245 276 285 305 306 297 286 271 276 282 287 302 301 287 293 302 288 273 257 259 284 295 292 291 297 303 302 298 300 306 307 301 294 293
282 281 278 277 276 273 269 265 260 255 250 247 245 245 245 246 247 248 248 250 251 250 248 248 250 252 252 252 251 252 253 252 252 251 254 259 266 267 261 261 263 246 219 204 188 175 190 253 262 225 221 236 183 201 224 251 278 298 296 285 277 269 270 277 284 293 292 290 300 300 268 260 263 274 296 293 290 292 298 300 297 296 299 305 308 302 295 296
282 282 281 279 277 274 271 268 265 261 255 250 246 245 244 242 242 243 244 246 247 246 244 243 243 244 246 246 246 247 248 247 249 249 252 261 266 260 257 262 252 232 205 184 187 185 174 198 227 223 228 237 233 235 221 228 272 280 284 278 268 268 273 281 287 287 287 292 298 290 263 261 267 272 282 287 291 293 295 297 295 293 295 303 310 304 296 300
284 279 279 280 278 275 272 270 267 265 261 255 249 245 242 239 238 239 241 241 242 241 239 235 235 236 238 241 242 243 244 244 244 246 254 263 264 262 264 259 232 214 195 182 188 193 182 208 221 212 229 237 223 226 208 201 250 269 301 284 275 276 281 288 292 295 298 298 292 286 283 280 275 269 273 283 294 293 292 295 293 289 290 298 308 305 298 302
299 285 276 275 276 276 274 271 269 267 264 259 252 246 242 239 237 236 237 237 236 235 231 227 228 228 232 237 239 239 240 240 239 242 251 254 255 258 253 240 223 205 197 194 196 193 185 210 220 198 209 223 199 198 191 191 228 278 294 273 281 290 285 286 293 299 304 304 296 291 289 275 274 276 280 291 300 296 291 292 290 285 286 292 303 305 298 302
310 300 285 275 272 273 273 272 270 268 265 261 254 248 245 241 238 236 235 235 233 230 226 223 224 225 228 232 232 233 234 234 235 240 245 245 247 247 236 227 218 206 206 208 210 206 190 198 217 200 197 206 194 193 200 199 194 208 252 266 290 298 289 291 302 308 304 303 302 297 289 275 271 268 274 304 309 300 292 290 287 281 280 286 296 299 296 300
305 303 298 285 273 269 269 269 268 268 266 263 256 251 249 245 240 236 235 234 232 228 224 223 222 222 224 227 229 231 230 231 234 239 239 235 235 235 230 228 223 217 221 221 213 212 202 200 220 225 208 216 233 217 219 235 229 213 251 276 295 293 288 293 302 307 307 308 306 300 298 290 274 270 300 327 320 308 301 294 287 281 277 282 289 292 294 299
300 298 298 295 282 272 268 266 265 265 265 263 259 255 251 246 241 236 233 233 232 230 227 224 221 219 221 224 227 229 230 231 234 234 234 233 232 231 229 231 232 227 228 231 221 215 209 205 223 235 225 239 259 237 217 236 248 251 259 270 286 299 303 304 305 304 307 315 306 298 301 296 287 300 325 329 321 311 305 298 290 283 278 280 285 290 293 297
301 297 294 291 285 278 270 265 263 262 262 261 260 256 252 248 244 237 232 231 232 232 231 227 222 221 221 221 223 225 228 232 233 232 233 233 230 231 232 233 234 232 230 234 232 224 215 210 225 242 242 245 254 245 225 229 242 258 268 271 281 299 306 304 307 303 303 309 303 297 298 293 293 309 316 318 316 309 304 297 288 281 277 279 285 289 293 296
300 298 295 289 284 279 272 267 263 261 260 259 258 256 253 250 247 241 234 229 229 229 230 229 225 223 221 221 223 225 226 228 230 231 231 229 228 231 236 237 236 235 235 235 233 232 227 219 227 242 246 248 257 257 241 228 222 245 273 286 287 303 313 306 302 298 299 308 311 306 299 290 287 298 306 314 312 304 299 293 285 278 276 279 285 288 289 293
301 298 296 293 286 279 273 267 263 260 258 257 256 254 252 250 247 243 238 233 230 227 227 228 227 224 223 224 225 225 225 227 228 229 228 228 230 232 234 237 238 237 236 234 232 237 240 234 234 240 244 254 264 257 242 230 214 233 253 335 329 334 340 328 313 298 298 307 307 304 303 300 298 301 307 313 309 301 297 290 284 279 276 279 283 283 284 288
310 302 296 295 290 282 275 269 263 260 257 255 254 252 250 249 246 244 241 238 235 231 228 227 227 227 226 226 226 226 227 227 228 228 228 228 231 232 232 236 239 238 237 235 235 240 245 245 243 244 247 255 258 251 246 238 224 238 265 337 349 342 335 328 320 306 298 297 290 293 303 300 301 307 308 308 303 299 294 288 283 279 277 278 277 276 280 286
318 309 300 294 291 287 280 272 266 261 257 254 252 250 249 248 246 244 242 240 238 235 231 228 227 228 228 227 227 228 229 229 230 231 230 229 230 231 232 236 239 240 241 240 238 241 246 247 247 249 251 254 258 259 258 254 247 261 291 308 327 329 319 316 315 305 292 285 284 290 291 288 296 304 304 302 300 297 293 288 283 279 278 279 275 276 282 286
320 313 304 295 290 288 283 276 269 263 258 255 251 248 247 246 245 242 240 239 238 237 235 232 229 228 228 228 228 229 230 231 232 233 232 231 232 232 232 235 238 241 244 246 245 245 248 248 248 250 251 250 252 253 256 266 276 288 299 298 304 320 315 308 309 305 298 292 289 288 285 289 300 303 299 298 299 298 296 292 287 283 282 281 279 281 286 288
319 315 307 297 290 287 284 280 274 267 260 255 252 249 247 245 243 241 238 237 237 237 237 235 232 230 228 228 229 230 231 232 233 233 232 233 235 236 236 235 237 240 245 249 250 249 250 250 248 250 252 252 252 253 260 274 281 283 291 298 300 309 312 306 308 311 307 303 292 286 291 300 301 298 297 299 299 299 300 299 295 290 285 283 282 284 288 289
317 314 309 302 293 287 284 282 278 272 265 258 253 250 248 246 244 241 238 236 236 235 236 236 234 233 231 229 229 230 231 232 233 233 232 233 236 238 239 238 239 241 245 248 251 251 251 251 248 246 249 254 257 261 267 273 276 278 284 292 295 298 308 307 306 312 315 311 296 290 300 302 296 295 298 300 299 299 303 305 303 298 292 287 286 288 289 289
314 313 311 306 298 290 284 280 278 275 271 264 257 252 250 248 246 243 239 237 235 234 235 236 236 235 233 230 230 231 230 231 232 233 232 233 234 235 238 240 240 240 241 245 249 250 250 250 249 247 248 252 256 258 262 267 272 276 280 285 290 296 303 298 300 317 327 322 309 308 310 299 295 299 299 299 300 301 304 307 306 303 299 294 291 290 289 287
312 311 311 308 303 295 285 279 275 273 272 268 262 255 252 251 248 245 242 238 236 235 234 235 235 235 235 233 232 233 231 231 233 234 233 234 234 234 235 238 240 239 239 241 244 247 248 248 249 250 250 251 252 252 256 263 268 272 274 276 280 291 298 286 286 311 319 315 311 314 311 297 294 299 298 298 300 302 304 306 307 306 302 297 292 289 288 287
308 310 309 307 304 298 290 282 274 270 269 268 265 259 255 253 251 249 245 241 239 237 235 235 233 233 235 236 236 236 234 233 234 234 233 233 234 235 235 237 240 240 239 240 241 243 246 246 246 247 247 250 251 248 250 257 263 267 268 266 269 284 290 280 277 296 307 310 310 309 303 296 295 300 301 299 300 302 303 304 307 309 306 300 296 291 289 288
305 308 308 306 303 298 292 285 276 270 267 265 264 261 258 255 253 251 249 245 242 240 238 237 235 233 234 236 237 238 237 236 236 235 235 234 234 235 235 236 238 239 238 239 240 241 244 246 246 245 242 246 250 247 245 252 256 260 263 264 267 278 280 277 279 287 301 313 315 310 304 301 303 306 305 303 302 302 303 305 307 309 308 304 300 295 291 290